Вернуться в каталог

FENGYUN 1C DEB

LostPO
NORAD 31832·DEBRIS·🇨🇳 China

Запущен May 10, 1999 с Taiyuan Satellite Launch Center

Loading…

Ближайшие Пролёты (ближайшие 24 часа)

TLE

УстаревшееSource: Space-Track

Эпоха: May 21, 2024, 13:50 UTC

1 31832U 99025CHW 24142.57702802  .00010227  00000-0  62257-2 0  9992
2 31832  97.8226 271.2071 0136812  69.2803 292.2968 14.01713800437357

Отслеживайте FENGYUN 1C DEB в реальном времени с AllMySat

Download on the App Store